Location: Centerville
(32.8776°N, 96.6203°W)
Time: 05:35:15
(UTC+00:00)

Cosmos 1452 Rocket - Pass Details

Date: 17 June 2021
Orbit: 768 x 774 km, 74.1° (Epoch: 29 July)

Event Time Altitude Azimuth Distance (km) Brightness Sun altitude
Rises 03:31:45 0° 208° (SSW) 3,234 6.5 -19.9°
Reaches altitude 10° 03:34:10 10° 213° (SSW) 2,311 5.8 -20.2°
Maximum altitude 03:39:17 52° 289° (WNW) 957 4.3 -20.9°
Drops below altitude 10° 03:44:25 10° 6° (N) 2,322 6.6 -21.6°
Sets 03:46:52 0° 11° (N) 3,251 7.3 -22.0°
